time_stamp(utc),avg(mph),gust(mph),direction(deg),12m_air_temp(f),sonic_u(cm/s),sonic_v(cm/s),sonic_w(cm/s),pressure,2m_air_temp(f),pyranometer(W/m^2)
"2021-02-07 00:02:39+00",8.3,9.3,,43.6,-322,-128,3,1021.47,38.2,0
"2021-02-07 00:07:39+00",6.8,6.8,,43.4,-279,-171,3,1021.65,38.5,0
"2021-02-07 00:12:39+00",7.4,7.4,,43.4,-253,-200,-2,1021.66,38.5,0
"2021-02-07 00:17:39+00",5.8,6.8,,43,-146,-213,-6,1021.79,38.8,0
"2021-02-07 00:22:39+00",5.9,5.9,,43,-172,-175,-7,1021.84,39.2,0
"2021-02-07 00:27:39+00",5.8,5.8,,43.3,-231,-142,-3,1021.79,39.3,0
"2021-02-07 00:32:39+00",6.0,7.0,,43.6,-221,-149,-3,1021.84,39.2,0
"2021-02-07 00:37:39+00",5.0,5.0,,43.6,-189,-122,1,1021.84,39.3,0
"2021-02-07 00:42:39+00",4.5,5.5,,43.4,-188,-100,-5,1021.65,39.1,0
"2021-02-07 00:47:39+00",5.1,6.1,,43.1,-200,-82,-8,1021.58,38.8,0
"2021-02-07 00:52:39+00",4.4,5.4,,43.2,-177,-94,-5,1021.48,38.5,0
"2021-02-07 00:57:39+00",4.6,5.6,,43.3,-131,-148,1,1021.43,39.3,0
"2021-02-07 01:02:39+00",3.0,3.0,,43.4,-92,-82,1,1021.19,39.8,0
"2021-02-07 01:07:39+00",2.6,2.6,,43.4,-81,-73,1,1021.15,39.3,0
"2021-02-07 01:12:39+00",3.4,3.4,,43.4,-88,-116,3,1021.28,39,0
"2021-02-07 01:17:39+00",4.8,4.8,,43.2,-100,-181,-6,1021.43,39.4,0
"2021-02-07 01:22:39+00",4.8,4.8,,43.1,-62,-194,-2,1021.52,40,0
"2021-02-07 01:27:39+00",5.2,5.2,,43,-27,-213,5,1021.6,39.9,0
"2021-02-07 01:32:39+00",8.4,8.4,,42,61,-355,-13,1021.65,39.4,0
"2021-02-07 01:37:39+00",6.5,7.5,,42.5,-28,-262,4,1021.68,39.2,0
"2021-02-07 01:42:39+00",6.2,6.2,,43.3,-119,-241,-5,1021.7,39.5,0
"2021-02-07 01:47:39+00",4.8,5.8,,43.4,-58,-192,-5,1021.59,39.7,0
"2021-02-07 01:52:39+00",4.7,4.7,,43.6,-56,-187,1,1021.54,40.3,0
"2021-02-07 01:57:39+00",5.1,6.1,,43.5,-38,-208,0,1021.76,40.2,0
"2021-02-07 02:02:39+00",5.6,6.6,,43.4,-19,-232,8,1021.87,39.9,0
"2021-02-07 02:07:39+00",6.7,6.7,,43.4,-33,-278,-6,1021.87,39.6,0
"2021-02-07 02:12:39+00",6.5,7.5,,43,-73,-266,-11,1021.91,39.9,0
"2021-02-07 02:17:39+00",6.4,7.4,,42.7,-34,-265,-1,1021.74,40.1,0
"2021-02-07 02:22:39+00",5.4,6.4,,42.1,-30,-219,-6,1021.76,40.2,0
"2021-02-07 02:27:39+00",6.6,6.6,,42.3,-58,-271,-8,1021.91,40.1,0
"2021-02-07 02:32:39+00",5.9,6.9,,42.1,-70,-241,-9,1021.87,40,0
"2021-02-07 02:37:39+00",6.1,6.1,,42.5,-144,-225,-5,1022.04,39.8,0
"2021-02-07 02:42:39+00",5.8,6.8,,43.5,-124,-228,-3,1022.02,39.6,0
"2021-02-07 02:47:39+00",5.2,5.2,,43.8,-64,-206,-2,1021.88,40,0
"2021-02-07 02:52:39+00",5.4,6.4,,43.8,-61,-217,-4,1021.83,40.3,0
"2021-02-07 02:57:39+00",4.9,5.9,,43.6,-36,-195,-1,1021.67,40.5,0
"2021-02-07 03:02:39+00",4.5,4.5,,43.1,62,-176,-10,1021.47,39.8,0
"2021-02-07 03:07:39+00",4.8,4.8,,42.5,90,-178,-12,1021.3,39.2,0
"2021-02-07 03:12:39+00",4.9,4.9,,42.5,47,-194,-8,1021.41,38.7,0
"2021-02-07 03:17:39+00",3.6,3.6,,43.2,6,-142,-1,1021.14,38.5,0
"2021-02-07 03:22:39+00",5.4,5.4,,43.5,82,-212,-10,1021.02,38.4,0
"2021-02-07 03:27:39+00",6.5,7.5,,42.6,65,-265,-10,1021.19,38.1,0
"2021-02-07 03:32:39+00",7.4,8.4,,43,84,-305,-11,1021.22,38.2,0
"2021-02-07 03:37:39+00",7.4,8.4,,42.2,114,-295,-12,1021.27,38.1,0
"2021-02-07 03:42:39+00",7.6,7.6,,42.9,89,-309,-12,1021.34,38.3,0
"2021-02-07 03:47:39+00",7.5,7.5,,42.9,79,-311,-12,1021.17,38.7,0
"2021-02-07 03:52:39+00",7.7,8.7,,42.4,102,-307,-12,1021.23,38.7,0
"2021-02-07 03:57:39+00",7.6,7.6,,42.3,131,-295,-11,1021.14,38.5,0
"2021-02-07 04:02:39+00",6.6,6.6,,41.7,170,-228,-11,1020.86,38.3,0
"2021-02-07 04:07:39+00",6.7,6.7,,40.9,194,-215,-6,1020.72,37.9,0
"2021-02-07 04:12:39+00",6.7,6.7,,40.3,165,-246,-8,1020.83,37.6,0
"2021-02-07 04:17:39+00",6.2,7.2,,40.1,151,-217,-7,1020.94,37.7,0
"2021-02-07 04:22:39+00",6.9,7.9,,40.2,199,-220,-3,1020.88,37.8,0
"2021-02-07 04:27:39+00",6.9,7.9,,40.1,211,-213,0,1020.76,37.9,0
"2021-02-07 04:32:39+00",6.2,7.2,,40,208,-164,-3,1020.64,37.9,0
"2021-02-07 04:37:39+00",7.6,7.6,,40.1,292,-170,3,1020.37,38,0
"2021-02-07 04:42:39+00",6.4,7.4,,40.3,249,-133,10,1020.27,38,0
"2021-02-07 04:47:39+00",7.9,8.9,,40.1,272,-226,6,1020.01,38,0
"2021-02-07 04:52:39+00",6.9,7.9,,40.1,270,-140,8,1019.8,38.1,0
"2021-02-07 04:57:39+00",8.2,9.2,,40.2,227,-271,-4,1020.05,38.2,0
"2021-02-07 05:02:39+00",9.2,11.2,,40,286,-277,-4,1019.77,38.5,0
"2021-02-07 05:07:39+00",9.1,10.1,,40.2,255,-301,-6,1019.56,38.8,0
"2021-02-07 05:12:39+00",8.2,9.2,,40.2,274,-231,0,1019.26,38.9,0
"2021-02-07 05:17:39+00",8.2,9.2,,40.1,297,-208,4,1019.15,38.9,0
"2021-02-07 05:22:39+00",8.3,10.3,,40.1,289,-223,0,1019.29,38.9,0
"2021-02-07 05:27:39+00",6.4,7.4,,40.1,202,-192,1,1019.58,39,0
"2021-02-07 05:32:39+00",7.3,8.3,,40.2,186,-253,-2,1019.8,39,0
"2021-02-07 05:37:39+00",7.6,8.6,,40.3,213,-244,-1,1019.84,39.1,0
"2021-02-07 05:42:39+00",7.7,8.7,,40.4,241,-254,-2,1019.94,39.1,0
"2021-02-07 05:47:39+00",7.4,8.4,,40.3,226,-236,2,1019.8,39,0
"2021-02-07 05:52:39+00",6.9,7.9,,40.4,158,-248,4,1019.83,39.1,0
"2021-02-07 05:57:39+00",7.4,8.4,,40.5,119,-286,-5,1020.04,39.2,0
"2021-02-07 06:02:39+00",7.7,8.7,,40.8,129,-307,-4,1019.96,39.2,0
"2021-02-07 06:07:39+00",8.2,9.2,,40.7,141,-325,-5,1019.97,39.3,0
"2021-02-07 06:12:39+00",7.9,8.9,,40.8,190,-286,-7,1019.52,39.4,0
"2021-02-07 06:17:39+00",7.2,8.2,,40.8,214,-234,-3,1019.2,39.4,0
"2021-02-07 06:22:39+00",8.2,9.2,,40.9,253,-244,-1,1018.99,39.4,0
"2021-02-07 06:27:39+00",7.6,8.6,,41,206,-261,-2,1019.16,39.4,0
"2021-02-07 06:32:39+00",8.2,9.2,,41.1,197,-294,-3,1019.13,39.6,0
"2021-02-07 06:37:39+00",7.4,8.4,,41.2,180,-264,-6,1019.35,39.7,0
"2021-02-07 06:42:39+00",7.2,8.2,,41.5,258,-175,1,1019.13,39.8,0
"2021-02-07 06:47:39+00",6.7,7.7,,41.8,218,-189,3,1019.26,39.7,0
"2021-02-07 06:52:39+00",6.7,6.7,,41.9,228,-180,2,1019.36,39.7,0
"2021-02-07 06:57:39+00",6.5,7.5,,41.8,247,-145,8,1019.43,39.7,0
"2021-02-07 07:02:39+00",6.3,7.3,,41.4,263,-91,4,1019.31,39.5,0
"2021-02-07 07:07:39+00",5.6,6.6,,41.1,237,-59,8,1019.21,39.4,0
"2021-02-07 07:12:39+00",6.0,7.0,,41.1,236,-115,8,1019.27,39.3,0
"2021-02-07 07:17:39+00",6.1,6.1,,41.2,214,-150,2,1019.29,39.1,0
"2021-02-07 07:22:39+00",6.8,7.8,,41.4,251,-160,4,1019.15,39.1,0
"2021-02-07 07:27:39+00",7.5,7.5,,41.3,265,-189,2,1019.2,39,0
"2021-02-07 07:32:39+00",8.0,8.0,,41.2,271,-213,4,1019.31,39.1,0
"2021-02-07 07:37:39+00",8.0,8.0,,41.1,293,-187,4,1019.1,39.2,0
"2021-02-07 07:42:39+00",8.4,9.4,,41.1,316,-194,3,1019.02,39.3,0
"2021-02-07 07:47:39+00",7.8,9.8,,41,308,-153,13,1018.74,39.4,0
"2021-02-07 07:52:39+00",8.5,9.5,,41,329,-180,7,1018.76,39.5,0
"2021-02-07 07:57:39+00",8.6,9.6,,41,340,-181,4,1018.69,39.7,0
"2021-02-07 08:02:39+00",9.8,10.8,,41.1,397,-190,9,1018.3,39.8,0
"2021-02-07 08:07:39+00",9.6,10.6,,41.3,394,-193,10,1018.09,40,0
"2021-02-07 08:12:39+00",9.8,10.8,,41.4,400,-176,14,1017.87,40.2,0
"2021-02-07 08:17:39+00",10.2,11.2,,41.3,427,-169,2,1017.67,40.3,0
"2021-02-07 08:22:39+00",10.6,12.6,,41.4,436,-180,5,1017.64,40.4,0
"2021-02-07 08:27:39+00",11.0,13.0,,41.4,466,-152,11,1017.3,40.5,0
"2021-02-07 08:32:39+00",10.8,11.8,,41.4,451,-181,15,1017.29,40.5,0
"2021-02-07 08:37:39+00",10.2,11.2,,41.4,430,-126,12,1017.15,40.5,0
"2021-02-07 08:42:39+00",9.7,10.7,,41.3,416,-122,23,1017.12,40.5,0
"2021-02-07 08:47:39+00",10.1,12.1,,41.3,442,-110,8,1017.13,40.5,0
"2021-02-07 08:52:39+00",9.3,11.3,,41.4,411,-95,15,1017.1,40.6,0
"2021-02-07 08:57:39+00",10.4,11.4,,41.4,467,-71,8,1017,40.6,0
"2021-02-07 09:02:39+00",11.0,13.0,,41.4,485,-70,17,1016.88,40.6,0
"2021-02-07 09:07:39+00",9.5,10.5,,41.5,419,-89,19,1016.97,40.7,0
"2021-02-07 09:12:39+00",9.1,10.1,,41.7,411,-30,19,1016.88,40.7,0
"2021-02-07 09:17:39+00",9.8,10.8,,41.7,444,-12,25,1016.85,40.7,0
"2021-02-07 09:22:39+00",9.3,10.3,,41.7,410,-43,20,1017.05,40.8,0
"2021-02-07 09:27:39+00",9.2,11.2,,41.7,411,-36,18,1017.03,40.8,0
"2021-02-07 09:32:39+00",8.6,9.6,,41.7,383,-45,11,1017.4,40.8,0
"2021-02-07 09:37:39+00",8.4,9.4,,41.7,377,-29,17,1017.42,40.8,0
"2021-02-07 09:42:39+00",9.5,10.5,,41.8,429,-11,25,1017.11,40.8,0
"2021-02-07 09:47:39+00",10.1,11.1,,41.7,444,3,25,1016.91,40.7,0
"2021-02-07 09:52:39+00",9.8,10.8,,41.7,443,4,20,1017.05,40.7,0
"2021-02-07 09:57:39+00",8.9,9.9,,41.8,404,22,21,1017.16,40.7,0
"2021-02-07 10:02:39+00",7.7,8.7,,41.9,341,45,20,1017.22,40.7,0
"2021-02-07 10:07:39+00",8.8,9.8,,42,388,81,24,1017.05,40.6,0
"2021-02-07 10:12:39+00",10.4,11.4,,41.9,466,94,23,1016.82,40.6,0
"2021-02-07 10:17:39+00",8.1,10.1,,42.1,349,122,18,1016.39,40.6,0
"2021-02-07 10:22:39+00",9.6,11.6,,42.7,429,-74,15,1016.14,40.9,0
"2021-02-07 10:27:39+00",14.6,16.6,,44,602,-285,8,1015.93,41.8,0
"2021-02-07 10:32:39+00",11.4,13.4,,43.9,481,-168,13,1015.88,42.3,0
"2021-02-07 10:37:39+00",13.6,16.6,,43.9,614,-1,47,1015.54,42.6,0
"2021-02-07 10:42:39+00",13.2,14.2,,44.5,464,-343,-7,1015.54,42.9,0
"2021-02-07 10:47:39+00",12.2,14.2,,44.7,516,-137,20,1015.52,43.2,0
"2021-02-07 10:52:39+00",12.3,14.3,,44.7,533,-118,17,1015.49,43.2,0
"2021-02-07 10:57:39+00",12.1,14.1,,44.3,524,-158,7,1015.25,43.1,0
"2021-02-07 11:02:39+00",10.8,11.8,,44,493,-59,19,1015.16,42.9,0
"2021-02-07 11:07:39+00",8.2,9.2,,44.3,359,-74,2,1015,42.9,0
"2021-02-07 11:12:39+00",9.2,10.2,,43.8,402,-105,10,1014.85,42.7,0
"2021-02-07 11:17:39+00",8.8,9.8,,43.6,395,4,24,1014.82,42.5,0
"2021-02-07 11:22:39+00",6.4,7.4,,43.3,286,3,10,1014.79,42.2,0
"2021-02-07 11:27:39+00",8.3,10.3,,43.7,366,-53,16,1014.89,42.1,0
"2021-02-07 11:32:39+00",10.9,11.9,,43.7,473,-109,13,1014.71,42.3,0
"2021-02-07 11:37:39+00",8.9,11.9,,43.2,402,-71,13,1014.44,42.1,0
"2021-02-07 11:42:39+00",9.7,10.7,,43.2,442,-42,19,1014.26,42,0
"2021-02-07 11:47:39+00",10.6,12.6,,43.1,483,6,38,1014.06,41.9,0
"2021-02-07 11:52:39+00",12.8,13.8,,43,586,-6,34,1014.13,41.7,0
"2021-02-07 11:57:39+00",12.6,14.6,,43.2,571,10,37,1013.81,41.5,0
"2021-02-07 12:02:39+00",14.2,16.2,,42.6,659,-3,38,1013.37,41.2,0
"2021-02-07 12:07:39+00",14.1,17.1,,42.7,636,-13,20,1013.21,41.1,0
"2021-02-07 12:12:39+00",13.7,15.7,,42.4,620,31,44,1013.04,40.9,0
"2021-02-07 12:17:39+00",17.3,19.3,,43.1,786,-4,27,1012.74,40.9,0
"2021-02-07 12:22:39+00",18.1,20.1,,42.7,820,134,65,1012.65,40.9,0
"2021-02-07 12:27:39+00",12.8,14.8,,42.4,574,72,49,1012.51,40.8,0
"2021-02-07 12:32:39+00",14.3,16.3,,42.3,651,76,50,1012.4,40.7,0
"2021-02-07 12:37:39+00",13.8,15.8,,42.2,607,160,41,1012.43,40.6,0
"2021-02-07 12:42:39+00",11.8,14.8,,42.2,513,66,47,1012.39,40.6,0
"2021-02-07 12:47:39+00",12.6,15.6,,42.1,566,85,40,1012.63,40.6,0
"2021-02-07 12:52:39+00",13.2,16.2,,42.3,600,35,49,1013.02,40.6,0
"2021-02-07 12:57:39+00",14.7,17.7,,42.5,667,22,41,1012.84,40.6,0
"2021-02-07 13:02:39+00",12.8,14.8,,42.7,580,62,36,1012.87,40.6,0
"2021-02-07 13:07:39+00",10.7,11.7,,42,466,141,29,1012.96,40.6,0
"2021-02-07 13:12:39+00",9.9,11.9,,41.8,445,95,31,1012.86,40.6,0
"2021-02-07 13:17:39+00",10.9,12.9,,42,465,160,50,1012.8,40.7,0
"2021-02-07 13:22:39+00",9.2,10.2,,41.8,405,102,27,1013.21,40.7,0
"2021-02-07 13:27:39+00",8.6,10.6,,41.5,374,131,35,1013,40.7,0
"2021-02-07 13:32:39+00",11.1,13.1,,41.4,438,243,21,1012.76,40.7,0
"2021-02-07 13:37:39+00",10.0,12.0,,41.2,429,136,40,1012.51,40.6,0
"2021-02-07 13:42:39+00",8.1,10.1,,41.2,352,93,33,1012.88,40.5,0
"2021-02-07 13:47:39+00",9.4,10.4,,41.2,402,131,25,1012.82,40.4,0
"2021-02-07 13:52:39+00",9.4,10.4,,41.2,405,123,20,1012.63,40.4,0
"2021-02-07 13:57:39+00",9.6,13.6,,41,424,119,34,1012.22,40.4,0
"2021-02-07 14:02:39+00",10.5,12.5,,41,418,230,4,1012.07,40.4,0
"2021-02-07 14:07:39+00",11.0,13.0,,41,415,265,25,1012.09,40.4,0
"2021-02-07 14:12:39+00",9.1,11.1,,40.9,357,210,23,1012.25,40.3,0
"2021-02-07 14:17:39+00",8.1,9.1,,40.9,284,224,13,1012.53,40.2,0
"2021-02-07 14:22:39+00",7.5,8.5,,40.8,208,237,6,1012.86,40.2,0
"2021-02-07 14:27:39+00",8.2,9.2,,40.7,178,308,2,1012.77,40.2,0
"2021-02-07 14:32:39+00",9.7,10.7,,40.6,264,317,3,1012.28,40.1,0
"2021-02-07 14:37:39+00",10.7,13.7,,40.5,228,404,-8,1012.33,40,0
"2021-02-07 14:42:39+00",11.5,13.5,,40.5,240,432,-1,1012.07,40,0
"2021-02-07 14:47:39+00",9.2,11.2,,40.3,159,362,2,1011.97,39.9,0
"2021-02-07 14:52:39+00",10.5,11.5,,40.2,216,403,-3,1011.93,39.8,0
"2021-02-07 14:57:39+00",10.6,12.6,,40.1,194,428,-1,1011.79,39.7,0
"2021-02-07 15:02:39+00",10.9,13.9,,40.1,154,454,-7,1011.54,39.7,0
"2021-02-07 15:07:39+00",12.1,13.1,,39.9,241,462,-7,1011.38,39.7,0
"2021-02-07 15:12:39+00",11.0,14.0,,40,235,400,7,1011.31,39.7,0
"2021-02-07 15:17:39+00",13.6,15.6,,40,304,502,11,1010.74,39.7,0
"2021-02-07 15:22:39+00",15.2,17.2,,39.9,321,579,-5,1010.28,39.8,0
"2021-02-07 15:27:39+00",13.4,17.4,,39.8,159,553,-3,1010.37,39.8,0
"2021-02-07 15:32:39+00",15.3,17.3,,39.9,171,620,-8,1010.14,39.7,0
"2021-02-07 15:37:39+00",14.3,16.3,,39.9,150,588,8,1010.11,39.6,0
"2021-02-07 15:42:39+00",15.3,17.3,,39.9,190,622,-5,1010.01,39.6,0
"2021-02-07 15:47:39+00",14.7,17.7,,39.7,260,597,6,1010.17,39.3,0
"2021-02-07 15:52:39+00",17.4,19.4,,39.7,337,696,-24,1010.17,39.2,0
"2021-02-07 15:57:39+00",17.5,20.5,,39.5,300,693,1,1010.01,39,0
"2021-02-07 16:02:39+00",16.1,20.1,,39.5,301,623,2,1009.89,38.8,0
"2021-02-07 16:07:39+00",16.8,21.8,,39.5,341,693,-26,1009.95,38.9,0
"2021-02-07 16:12:39+00",18.6,20.6,,39.4,353,739,-13,1009.62,38.8,0
"2021-02-07 16:17:39+00",18.2,22.2,,39.3,385,694,-33,1009.81,38.7,0
"2021-02-07 16:22:39+00",17.3,20.3,,39.3,359,685,-10,1009.62,38.7,0
"2021-02-07 16:27:39+00",20.0,23.0,,39.1,492,780,-79,1009.36,38.6,0
"2021-02-07 16:32:39+00",20.1,24.1,,38.8,432,734,3,1009.04,38.2,0
"2021-02-07 16:37:39+00",22.0,26.0,,38.6,591,867,-114,1009.29,37.9,0
"2021-02-07 16:42:39+00",21.1,24.1,,38.5,367,894,-56,1009.73,37.8,0
"2021-02-07 16:47:39+00",27.1,30.1,,37.8,1076,1001,-267,1009.45,37.4,0
"2021-02-07 16:52:39+00",26.4,31.4,,36.8,908,910,-149,1008.67,36.5,0
"2021-02-07 16:57:39+00",29.2,31.2,,36.4,1061,1014,-194,1008.5,36.1,0
"2021-02-07 17:02:39+00",22.7,26.7,,36,984,805,-240,1008.61,35.7,0
"2021-02-07 17:07:39+00",19.5,24.5,,35.4,400,756,-3,1008.64,35.3,0
"2021-02-07 17:12:39+00",20.5,27.5,,34.9,604,779,-114,1008.13,34.9,0
"2021-02-07 17:17:39+00",23.0,26.0,,34.3,853,907,-268,1008.09,34.3,0
"2021-02-07 17:22:39+00",18.5,22.5,,33.7,383,759,-71,1008.05,33.6,0
"2021-02-07 17:27:39+00",15.9,20.9,,33.3,221,666,-14,1008.45,33,0
"2021-02-07 17:32:39+00",14.3,18.3,,33,131,632,12,1008.41,32.7,0
"2021-02-07 17:37:39+00",13.3,16.3,,32.9,75,584,10,1008.62,32.6,0
"2021-02-07 17:42:39+00",14.4,16.4,,32.9,137,654,7,1008.48,32.6,0
"2021-02-07 17:47:39+00",16.4,19.4,,32.9,87,770,-18,1008.55,32.6,0
"2021-02-07 17:52:39+00",12.2,14.2,,32.8,-22,581,8,1008.87,32.6,0
"2021-02-07 19:47:39+00",18.8,21.8,,32.5,-158,835,16,1008.17,32.2,0
"2021-02-07 19:52:39+00",20.0,23.0,,32.5,-180,874,31,1008.28,32.3,0
"2021-02-07 19:57:39+00",20.5,22.5,,32.6,-213,885,19,1008.43,32.4,0
"2021-02-07 20:02:39+00",19.6,23.6,,32.6,-156,837,26,1008.53,32.5,0
"2021-02-07 20:07:39+00",22.2,25.2,,32.7,-202,948,35,1008.54,32.5,0
"2021-02-07 20:12:39+00",22.6,24.6,,32.8,-116,1018,-11,1008.64,32.5,0
"2021-02-07 20:17:39+00",18.5,22.5,,32.9,-33,814,15,1008.78,32.6,0
"2021-02-07 20:22:39+00",19.5,22.5,,32.9,-44,829,43,1008.8,32.7,0
"2021-02-07 20:27:39+00",19.7,22.7,,33,-118,887,15,1008.97,32.8,0
"2021-02-07 20:32:39+00",18.2,22.2,,33,-146,802,23,1009.14,32.9,0
"2021-02-07 20:37:39+00",16.6,18.6,,33,-189,700,39,1009.34,32.9,0
"2021-02-07 20:42:39+00",15.1,17.1,,33,-118,652,17,1009.49,32.9,0
"2021-02-07 20:47:39+00",15.4,17.4,,33,-123,675,15,1009.64,32.9,0
"2021-02-07 20:52:39+00",17.4,19.4,,33,-171,748,22,1009.72,33,0
"2021-02-07 20:57:39+00",16.2,20.2,,33,-221,653,10,1009.89,33,0
"2021-02-07 21:02:39+00",15.7,17.7,,33,-190,669,7,1009.95,32.9,0
"2021-02-07 21:07:39+00",13.9,16.9,,32.9,-226,552,32,1009.99,33,0
"2021-02-07 21:12:39+00",15.3,18.3,,32.9,-226,621,20,1010.01,32.9,0
"2021-02-07 21:17:39+00",14.9,16.9,,32.9,-278,567,45,1010.05,32.9,0
"2021-02-07 21:22:39+00",13.5,14.5,,32.9,-227,542,27,1010.11,32.9,0
"2021-02-07 21:27:39+00",12.3,14.3,,33,-162,507,28,1010.21,32.9,0
"2021-02-07 21:32:39+00",15.0,18.0,,33,-250,581,14,1010.28,33,0
"2021-02-07 21:37:39+00",15.9,16.9,,33,-261,634,32,1010.44,32.9,0
"2021-02-07 21:42:39+00",14.3,16.3,,33.1,-232,567,23,1010.54,32.9,0
"2021-02-07 21:47:39+00",12.3,16.3,,33.1,-255,487,37,1010.52,32.9,0
"2021-02-07 21:52:39+00",12.2,17.2,,33.3,-240,471,40,1010.76,32.9,0
"2021-02-07 21:57:39+00",14.2,15.2,,33.4,-293,536,31,1010.87,33,0
"2021-02-07 22:02:39+00",15.0,17.0,,33.5,-356,540,26,1010.99,33.1,0
"2021-02-07 22:07:39+00",12.5,14.5,,33.5,-272,481,21,1010.99,33.1,0
"2021-02-07 22:12:39+00",11.4,12.4,,33.5,-275,407,39,1010.9,33,0
"2021-02-07 22:17:39+00",13.1,14.1,,33.4,-349,471,41,1011.01,32.9,0
"2021-02-07 22:22:39+00",13.9,15.9,,33.4,-358,489,32,1011.31,32.9,0
"2021-02-07 22:27:39+00",14.3,16.3,,33.4,-390,486,47,1011.27,32.9,0
"2021-02-07 22:32:39+00",14.1,16.1,,33.3,-378,475,31,1011.36,32.8,0
"2021-02-07 22:37:39+00",15.6,18.6,,33.3,-429,518,36,1011.46,32.8,0
"2021-02-07 22:42:39+00",15.2,17.2,,33.3,-397,537,31,1011.53,32.8,0
"2021-02-07 22:47:39+00",14.4,16.4,,33.3,-360,514,53,1011.71,32.9,0
"2021-02-07 22:52:39+00",12.9,14.9,,33.3,-332,448,46,1011.73,32.8,0
"2021-02-07 22:57:39+00",16.2,17.2,,33.2,-402,578,39,1011.94,32.7,0
"2021-02-07 23:02:39+00",17.0,19.0,,33.2,-506,553,43,1012.17,32.8,0
"2021-02-07 23:07:39+00",17.9,19.9,,33.3,-578,566,49,1012.48,32.9,0
"2021-02-07 23:12:39+00",18.5,19.5,,33.3,-536,603,47,1012.67,32.9,0
"2021-02-07 23:17:39+00",15.9,18.9,,33.3,-459,512,40,1012.72,32.9,0
"2021-02-07 23:22:39+00",13.3,15.3,,33.3,-410,411,60,1012.91,32.9,0
"2021-02-07 23:27:39+00",18.5,23.5,,33.3,-594,549,65,1012.93,33,0
"2021-02-07 23:32:39+00",18.2,22.2,,33.3,-564,551,69,1013,32.9,0
"2021-02-07 23:37:39+00",16.3,19.3,,33.3,-422,580,44,1012.96,33,0
"2021-02-07 23:42:39+00",14.5,17.5,,33.1,-357,530,24,1012.78,32.8,0
"2021-02-07 23:47:39+00",19.5,21.5,,33.3,-564,641,53,1013.19,32.8,0
"2021-02-07 23:52:39+00",14.9,18.9,,33.5,-503,446,45,1013.37,33,0
"2021-02-07 23:57:39+00",19.6,21.6,,33.6,-703,522,73,1013.64,33.1,0
